Weather in Mamak

Turkey     39°55′01″N   32°55′57″E
temp.,
°C
wind,
m/s
gust,
m/s
humid.,
%
clouds,
%
prec.,
mm/h
press.,
hPa
HPBL,
m
26 july, mon
mon2600:00+19ne345618 0.0 101372
03:00+17nne226569 0.0 101429
06:00+16nne2269100 0.0 101522
09:00+21nnw22475 0.0 1014689
12:00+26wnw45290 0.0 10142297
15:00+28wnw55202 0.0 10122984
18:00+26nnw76311 0.0 10121732
21:00+20n611620 0.0 1016609
27 july, tue
tue2700:00+17n23700 0.0 101751
03:00+16nw22750 0.0 101720
06:00+15n22760 0.0 101832
09:00+22nne57520 0.0 1017907
12:00+26nne55360 0.0 10161976
15:00+29nne66274 0.0 10142944
18:00+28nne87278 0.0 10142348
21:00+22ne59440 0.0 1016334
28 july, wed
wed2800:00+19ne34560 0.0 101877
03:00+16nne33630 0.0 101824
06:00+15nne22620 0.0 101820
09:00+22ne57340 0.0 10171233
12:00+26ne67240 0.0 10151859
15:00+29ne56200 0.0 10132415
18:00+27ne77220 0.0 10131958
21:00+20e45370 0.0 101599
29 july, thu
thu2900:00+17ene33470 0.0 101628
03:00+15ene22540 0.0 101615
06:00+14ene22580 0.0 101612
09:00+20ene23310 0.0 1015686
12:00+26ne23190 0.0 10131594
15:00+29ne46160 0.0 10102199
18:00+29ne56180 0.0 10092589
21:00+22ene45300 0.0 101284
30 july, fri
fri3000:00+18ne22340 0.0 101216
03:00+16nne22430 0.0 101211
06:00+15ne22470 0.0 101313
09:00+22ene23240 0.0 1012697
12:00+26ne34210 0.0 10101629
15:00+29ne45170 0.0 10082294
18:00+29nne65170 0.0 10072643
21:00+22ne45310 0.0 101069